Date String (YYYY-MM-DD hh:mm:ss) UTC,Instrument flags,Ambient pressure (hPa),Sample flow (lpm),Bypass flow (lpm),Sample temperature (°C),Ambient temperature (°C),ASC tube jacket temperature (°C),LED temperature (°C),Box temperature (°C),Sample RH (%),Span deviation,Mass concentration (μg/m³),Mass concentration (μg/m³),Mass concentration (μg/m³)
DateTimeUTC,F1_M11,P_M11,Q1_M11,Q2_M11,T1_M11,T2_M11,T3_M11,T4_M11,T5_M11,U1_M11,ZSPAN_M11,X0_M11,X2_M11,X1_M11
2022-12-24 10:00:00,,0827.2,4.98,0.00,21.4,19.4,00.0,30.4,22.7,04.8,0002.0,0019.15,0008.94,0007.85
2022-12-24 10:01:00,,0827.2,5.03,0.00,21.3,19.0,00.0,30.4,22.5,04.8,0002.1,0018.51,0009.02,0007.97
2022-12-24 10:02:00,,0827.2,5.02,0.00,21.3,20.2,00.0,30.3,22.8,04.8,0002.0,0017.53,0009.09,0008.06
2022-12-24 10:03:00,,0827.2,4.99,0.00,21.4,21.3,00.0,30.3,23.1,04.8,0001.4,0017.90,0009.17,0008.19
2022-12-24 10:04:00,,0827.2,4.99,0.00,21.5,21.6,00.0,30.3,23.2,04.7,0001.5,0018.25,0009.37,0008.42
2022-12-24 10:05:00,,0827.1,5.03,0.00,21.5,20.8,00.0,30.3,23.0,04.7,0001.4,0017.30,0009.47,0008.53
2022-12-24 10:06:00,,0827.0,4.94,0.00,21.4,20.1,00.0,30.3,22.9,04.8,0001.4,0016.62,0009.42,0008.53
2022-12-24 10:07:00,,0827.2,5.02,0.00,21.3,19.6,00.0,30.3,22.7,04.9,0001.3,0016.64,0009.35,0008.43
2022-12-24 10:08:00,,0827.2,5.03,0.00,21.3,19.6,00.0,30.3,22.7,05.0,0001.3,0016.37,0009.14,0008.27
2022-12-24 10:09:00,,0827.2,4.99,0.00,21.3,20.6,00.0,30.2,23.0,05.0,0001.5,0015.56,0008.94,0008.08
2022-12-24 10:10:00,,0827.2,5.00,0.00,21.5,21.6,00.0,30.2,23.3,05.0,0001.7,0015.96,0009.02,0008.10
2022-12-24 10:11:00,,0827.1,5.01,0.00,21.5,21.8,00.0,30.3,23.3,05.1,0001.8,0015.83,0008.72,0007.87
2022-12-24 10:12:00,,0827.1,4.96,0.00,21.5,21.1,00.0,30.3,23.2,05.2,0001.6,0015.68,0008.32,0007.53
2022-12-24 10:13:00,,0827.2,5.03,0.00,21.5,20.4,00.0,30.3,23.0,05.3,0001.4,0015.21,0008.00,0007.20
2022-12-24 10:14:00,,0826.9,5.02,0.00,21.4,19.8,00.0,30.3,22.8,05.5,0002.0,0014.12,0007.56,0006.79
2022-12-24 10:15:00,,0826.9,4.97,0.00,21.3,19.7,00.0,30.3,22.8,05.6,0002.1,0013.75,0007.04,0006.33
2022-12-24 10:16:00,,0826.9,5.00,0.00,21.4,20.8,00.0,30.2,23.1,06.0,0001.8,0013.63,0006.60,0005.93
2022-12-24 10:17:00,,0826.9,5.02,0.00,21.5,21.7,00.0,30.2,23.3,06.5,0001.7,0013.05,0006.20,0005.54
2022-12-24 10:18:00,,0826.9,4.95,0.00,21.6,21.7,00.0,30.3,23.4,06.7,0001.9,0012.50,0005.91,0005.30
2022-12-24 10:19:00,,0826.9,5.03,0.00,21.6,21.1,00.0,30.3,23.3,06.9,0000.4,0012.09,0005.65,0005.07
2022-12-24 10:20:00,,0826.9,5.03,0.00,21.5,20.5,00.0,30.3,23.1,07.1,0000.0,0011.68,0005.39,0004.86
2022-12-24 10:21:00,,0826.9,4.97,0.00,21.4,20.0,00.0,30.3,22.9,07.0,0000.0,0011.45,0005.14,0004.68
2022-12-24 10:22:00,,0826.9,4.99,0.00,21.4,19.9,00.0,30.3,22.9,07.0,0000.0,0011.15,0005.09,0004.64
2022-12-24 10:23:00,,0826.8,5.03,0.00,21.5,21.0,00.0,30.3,23.2,07.2,0000.0,0010.79,0004.99,0004.54
2022-12-24 10:24:00,,0826.8,4.98,0.00,21.6,22.1,00.0,30.3,23.4,07.5,0000.0,0010.28,0004.81,0004.40
2022-12-24 10:25:00,,0826.7,5.01,0.00,21.7,22.1,00.0,30.3,23.5,07.7,0000.0,0009.99,0004.65,0004.25
2022-12-24 10:26:00,,0826.7,5.02,0.00,21.7,21.5,00.0,30.4,23.4,07.9,0000.0,0009.37,0004.50,0004.10
2022-12-24 10:27:00,,0826.7,4.96,0.00,21.6,20.9,00.0,30.4,23.3,08.0,0000.0,0008.47,0004.35,0003.96
2022-12-24 10:28:00,,0826.7,5.02,0.00,21.6,20.4,00.0,30.4,23.2,07.8,0000.0,0008.59,0004.43,0004.05
2022-12-24 10:29:00,,0826.8,5.02,0.00,21.5,20.0,00.0,30.4,23.1,07.8,0000.0,0008.78,0004.52,0004.08
2022-12-24 10:30:00,,0826.7,5.01,0.00,21.5,20.1,00.0,30.4,23.1,07.9,0000.0,0008.81,0004.55,0004.08
2022-12-24 10:31:00,,0826.7,4.97,0.00,21.6,21.2,00.0,30.3,23.3,08.1,0000.0,0008.84,0004.49,0004.02
2022-12-24 10:32:00,,0826.8,5.03,0.00,21.7,21.8,00.0,30.4,23.5,07.9,0000.0,0008.53,0004.34,0003.89
2022-12-24 10:33:00,,0826.9,4.99,0.00,21.7,21.4,00.0,30.4,23.5,07.6,0000.0,0008.26,0004.35,0003.88
2022-12-24 10:34:00,,0826.9,4.98,0.00,21.7,20.9,00.0,30.4,23.3,07.5,0000.0,0008.31,0004.44,0003.94
2022-12-24 10:35:00,,0826.8,5.01,0.00,21.6,20.3,00.0,30.4,23.2,07.4,0000.0,0008.70,0004.66,0004.12
2022-12-24 10:36:00,,0826.9,5.03,0.00,21.6,20.0,00.0,30.4,23.1,07.7,0000.0,0009.51,0004.84,0004.27
2022-12-24 10:37:00,,0826.9,4.99,0.00,21.5,20.2,00.0,30.4,23.1,07.6,0000.0,0010.04,0005.02,0004.44
2022-12-24 10:38:00,,0827.0,4.96,0.00,21.6,21.4,00.0,30.4,23.4,07.4,0000.0,0010.61,0005.27,0004.64
2022-12-24 10:39:00,,0826.9,5.03,0.00,21.7,22.1,00.0,30.4,23.6,06.9,0000.0,0010.91,0005.48,0004.82
2022-12-24 10:40:00,,0826.9,4.99,0.00,21.8,21.6,00.0,30.5,23.6,06.8,0000.2,0011.04,0005.63,0005.01
2022-12-24 10:41:00,,0826.7,4.99,0.00,21.8,21.1,00.0,30.5,23.5,07.0,0003.1,0011.22,0005.70,0005.14
2022-12-24 10:42:00,,0826.9,5.04,0.00,21.7,20.7,00.0,30.5,23.4,07.5,0003.0,0011.31,0005.76,0005.21
2022-12-24 10:43:00,,0827.0,5.02,0.00,21.7,20.3,00.0,30.5,23.3,07.8,0002.7,0011.05,0005.79,0005.25
2022-12-24 10:44:00,,0826.9,4.97,0.00,21.6,20.2,00.0,30.5,23.2,07.3,0002.0,0011.06,0005.82,0005.26
2022-12-24 10:45:00,,0827.0,4.99,0.00,21.7,21.0,00.0,30.5,23.4,07.0,0001.7,0011.07,0005.90,0005.34
2022-12-24 10:46:00,,0827.0,5.03,0.00,21.8,22.0,00.0,30.5,23.7,07.2,0000.7,0011.00,0005.83,0005.29
2022-12-24 10:47:00,,0826.9,4.97,0.00,21.9,21.8,00.0,30.5,23.7,06.6,0000.6,0010.77,0005.97,0005.41
2022-12-24 10:48:00,,0826.9,5.01,0.00,21.9,21.3,00.0,30.5,23.6,06.3,0000.9,0010.77,0006.13,0005.55
2022-12-24 10:49:00,,0826.8,5.03,0.00,21.8,20.8,00.0,30.6,23.5,06.8,0001.7,0010.68,0006.08,0005.53
2022-12-24 10:50:00,,0827.1,5.00,0.00,21.8,20.5,00.0,30.6,23.4,07.1,0001.9,0010.89,0005.95,0005.41
2022-12-24 10:51:00,,0827.0,4.96,0.00,21.7,20.2,00.0,30.6,23.3,06.6,0001.9,0010.76,0005.86,0005.32
2022-12-24 10:52:00,,0826.9,5.01,0.00,21.7,20.4,00.0,30.5,23.3,05.8,0002.2,0011.33,0005.99,0005.43
2022-12-24 10:53:00,,0826.8,5.02,0.00,21.8,21.5,00.0,30.5,23.6,05.8,0001.8,0011.80,0006.19,0005.60
2022-12-24 10:54:00,,0827.1,4.95,0.00,21.9,22.4,00.0,30.5,23.8,05.9,0000.9,0012.32,0006.43,0005.78
2022-12-24 10:55:00,,0827.0,5.03,0.00,22.0,22.3,00.0,30.6,23.9,06.4,0001.7,0012.23,0006.41,0005.78
2022-12-24 10:56:00,,0827.2,5.02,0.00,22.0,21.7,00.0,30.6,23.8,06.0,0001.9,0012.48,0006.41,0005.78
2022-12-24 10:57:00,,0827.2,4.98,0.00,21.9,20.9,00.0,30.7,23.5,05.7,0002.5,0012.92,0006.57,0005.94
2022-12-24 10:58:00,,0827.1,4.97,0.00,21.8,20.3,00.0,30.7,23.4,05.3,0003.0,0012.97,0006.66,0006.06
2022-12-24 10:59:00,,0827.2,5.03,0.00,21.8,20.0,00.0,30.6,23.2,05.1,0002.8,0012.97,0006.63,0006.03
